Fort Lewis, WA

2:54 AM PDT on June 23, 2017 (GMT -0700)
Gray Army Air Field

Weather History for KGRF - March, 2013

Change the Weather History Date:

Monday, March 25, 2013

  Actual Average Record
Temperature  
Mean Temperature 42 °F -  
Max Temperature 58 °F 53 °F 64 °F (1997)
Min Temperature 28 °F 35 °F 27 °F (2008)
Degree Days  
Heating Degree Days 22    
Moisture  
Dew Point 32 °F    
Average Humidity 66    
Maximum Humidity 95    
Minimum Humidity 35    
Precipitation  
Precipitation 0.00 in - - ()
Sea Level Pressure  
Sea Level Pressure 30.04 in    
Wind  
Wind Speed 2 mph (NNW)    
Max Wind Speed 9 mph    
Max Gust Speed -    
Visibility 10 miles    
Events      
Averages and records for this station are not official NWS values.
T = Trace of Precipitation, MM = Missing Value Source: NWS Daily Summary

Daily Weather History Graph

Daily Weather History Graph

Search for Another Location

Airport or City:

Trip Planner

Search our weather history database for the weather conditions in past years. The results will help you decide how hot, cold, wet, or windy it might be!

Date:

Astronomy

Mar. 25, 2013 Rise Set
Actual Time 7:02 AM PDT 7:30 PM PDT
Civil Twilight 6:32 AM PDT 8:01 PM PDT
Nautical Twilight 5:55 AM PDT 8:37 PM PDT
Astronomical Twilight 5:18 AM PDT 9:15 PM PDT
Moon 6:05 PM PDT (3/25) 5:54 AM PDT (3/25)
Length of Visible Light 13h 29m
Length of Day
12h 27m
Waxing Gibbous, 97% of the Moon is Illuminated
Mar 25
Waxing Gibbous
Mar 27
Full
Apr 2
Last Quarter
Apr 10
New
Apr 18
First Quarter

Hourly Weather History & Observations

Time (PDT) Temp. Windchill Dew Point Humidity Pressure Visibility Wind Dir Wind Speed Gust Speed Precip Events Conditions
12:58 AM 33.6 °F - 30.6 °F 89% 30.13 in 10.0 mi Calm Calm - N/A   Scattered Clouds
1:58 AM 33.3 °F - 30.2 °F 89% 30.12 in 10.0 mi SE 1.2 mph - N/A   Clear
2:58 AM 31.6 °F - 29.7 °F 92% 30.11 in 10.0 mi SSE 2.3 mph - N/A   Clear
3:58 AM 30.4 °F - 28.6 °F 93% 30.10 in 10.0 mi SE 2.3 mph - N/A   Clear
4:58 AM 31.5 °F - 29.8 °F 94% 30.09 in 10.0 mi NE 2.3 mph - N/A   Clear
5:58 AM 28.9 °F 23.9 °F 27.5 °F 94% 30.09 in 10.0 mi SE 4.6 mph - N/A   Clear
6:58 AM 28.8 °F - 27.5 °F 95% 30.09 in 10.0 mi ESE 2.3 mph - N/A   Clear
7:58 AM 29.5 °F - 28.0 °F 94% 30.09 in 10.0 mi Calm Calm - N/A   Clear
8:58 AM 34.3 °F - 31.6 °F 90% 30.09 in 10.0 mi Calm Calm - N/A   Mostly Cloudy
9:58 AM 41.5 °F - 34.7 °F 77% 30.08 in 10.0 mi Calm Calm - N/A   Mostly Cloudy
10:58 AM 46.4 °F - 34.5 °F 63% 30.07 in 10.0 mi North 2.3 mph - N/A   Mostly Cloudy
11:58 AM 50.2 °F - 34.2 °F 54% 30.06 in 10.0 mi NNW 2.3 mph - N/A   Mostly Cloudy
12:58 PM 53.8 °F - 32.5 °F 45% 30.03 in 10.0 mi NW 9.2 mph - N/A   Scattered Clouds
1:58 PM 56.5 °F - 30.0 °F 36% 30.02 in 10.0 mi NNW 4.6 mph - N/A   Mostly Cloudy
2:58 PM 57.6 °F - 30.2 °F 35% 29.99 in 10.0 mi NW 8.1 mph - N/A   Mostly Cloudy
3:58 PM 57.6 °F - 29.7 °F 35% 29.98 in 10.0 mi WNW 6.9 mph - N/A   Scattered Clouds
4:58 PM 57.0 °F - 29.8 °F 36% 29.97 in 10.0 mi WNW 8.1 mph - N/A   Overcast
5:58 PM 57.2 °F - 30.4 °F 36% 29.95 in 10.0 mi WNW 6.9 mph - N/A   Mostly Cloudy
6:58 PM 55.9 °F - 31.6 °F 40% 29.95 in 10.0 mi WNW 4.6 mph - N/A   Overcast
7:58 PM 54.1 °F - 32.0 °F 43% 29.95 in 10.0 mi WSW 2.3 mph - N/A   Overcast
8:58 PM 50.5 °F - 37.4 °F 61% 29.96 in 10.0 mi SE 2.3 mph - N/A   Overcast
9:58 PM 49.8 °F - 37.0 °F 61% 29.97 in 10.0 mi Calm Calm - N/A   Overcast
10:58 PM 48.7 °F - 37.9 °F 66% 29.97 in 10.0 mi East 1.2 mph - N/A   Overcast
11:58 PM 50.0 °F - 35.1 °F 57% 29.98 in 10.0 mi Variable 1.2 mph - N/A   Overcast